Regional Weather Roundup
Issued by NWS

Home | Current Version | Previous Version | Graphics & Text | Print | Product List | Glossary On
Versions: 1 2 3 4 5 6 7 8 9 10 11 12 13 14 15 16 17 18 19 20 21 22 23 24 25 26 27 28 29 30 31 32 33 34 35 36 37 38 39 40 41 42 43 44 45 46 47 48 49 50
000
ASUS44 KMEG 302110
RWRTN
TENNESSEE HOURLY STATE WEATHER ROUNDUP
NATIONAL WEATHER SERVICE MEMPHIS TN
400 PM CDT TUE JUN 30 2015

TNZ002-004-019-021-049-052-054-088>092-302200-
WEST TENNESSEE

CITY           SKY/WX    TMP DP  RH WIND       PRES   REMARKS
MEMPHIS INTL   CLOUDY    86  73  65 SW6       29.93F HX  93
NWS MEMPHIS      N/A     86 N/A N/A MISG        N/A
JACKSON        SUNNY     87  67  51 W10       29.92F HX  90
DYERSBURG        N/A    N/A N/A N/A MISG        N/A
PARIS          SUNNY     82  68  61 W7        29.91F
LEXINGTON      SUNNY     84  70  61 W8        29.91F
$$

TNZ008-025-027-028-033-062-065-066-302200-
NORTH MIDDLE TENNESSEE

CITY           SKY/WX    TMP DP  RH WIND       PRES   REMARKS
NASHVILLE      CLOUDY    85  68  56 W12G17    29.90S
CLARKSVILLE    MOSUNNY   83  68  60 W12       29.88F
SMYRNA         MOSUNNY   87  68  53 W14       29.90S HX  90
COOKEVILLE     MOSUNNY   84  73  70 W6        29.90F HX  91
CROSSVILLE     PTSUNNY   78  66  66 W12G18    29.97S
$$

TNZ061-075-076-078-094-096-097-302200-
SOUTH MIDDLE TENNESSEE

CITY           SKY/WX    TMP DP  RH WIND       PRES   REMARKS
FAYETTEVILLE     N/A     81  68  65 W12       29.94F
TULLAHOMA      MOSUNNY   81  68  65 SW12      29.94F
WINCHESTER     MOSUNNY   82  70  65 W9        29.94S
MCMINNVILLE    MOSUNNY   82  70  65 SW13      29.92R
COLUMBIA       SUNNY     84  72  65 W8        29.91F
SHELBYVILLE    PTSUNNY   84  72  65 W12       29.92S
$$

TNZ017-018-042-046-047-302200-
NORTHEAST TENNESSEE

CITY           SKY/WX    TMP DP  RH WIND       PRES   REMARKS
TRI CITIES     CLOUDY    79  66  64 SW12      29.93F
ELIZABETHTON   CLEAR     79  64  61 W7        29.93F
$$

TNZ012-013-036-069-073-074-302200-
CENTRAL EAST TENNESSEE

CITY           SKY/WX    TMP DP  RH WIND       PRES   REMARKS
KNOXVILLE      CLOUDY    77  68  73 SW7       29.92S
OAK RIDGE      PTSUNNY   73  66  78 S7        29.94S
GATLINBURG     PTCLDY    72  64  78 W6        29.92F
MORRISTOWN     CLEAR     73  64  73 SW12      29.93F
$$

TNZ083-085-099-302200-
SOUTHEAST TENNESSEE

CITY           SKY/WX    TMP DP  RH WIND       PRES   REMARKS
CHATTANOOGA    PTSUNNY   84  67  56 SW15G21   29.93R
$$

SKY/WX REPORTED AS FAIR MEANS FEW OR NO CLOUDS BELOW
12 THOUSAND FEET.




USA.gov is the U.S. government's official web portal to all federal, state and local government web resources and services.